Probability
0 0 0 0 0 0 0 0 0 0 0 0 0 0 0 0 0 0 0 0 0 0 0 0 0 0 0 0 0 0 0 0 0 0 0 0 0 0
0 0 0 0 0 0 0 0 0 0 0 0 0 0 0 0 0 0 0 0 0 0 0 0 0 0 0 0 0 0 0 0 0 0 0 0 0 0
0 0 0 0 0 0 0 0 0 0 0 0 0 0 0 0 0 0 0 0 0 0 0 0 0 0 0 0 0 0 0 0 0 0 0 0 0 0
0 0 0 0 0 0 0 0 0 0 0 0 0 0 0 0 0 0 0 0 0 0 0 0 0 0 0 0 0 0 0 0 0 0 0 0 0 0
0 0 0 0 0 0 0 0 0 0 0 0 0 0 0 0 0 0 0 0 0 0 0 0 0 0 0 0 0 0 0 0 0 0 0 0 0 0
0 0 0 0 0 0 0 0 0 0 0 0 0 0 0 0 0 0 0 0 0 0 0 0 0 0 0 0 0 0 0 0 0 0 0 0 0 0
0 0 0 0 0 0 0 0 0 0 0 0 0 0 0 0 0 0 0 0 0 0 0 0 0 0 0 0 0 0 0 0 0 0 0 0 0 0
0 0 0 0 0 0 0 0 0 0 0 0 0 0 0 0 0 0 0 0 0 0 0 0 0 0 0 0 0 0 0 0 0 0 0 0 0 0
0 0 0 0 0 0 0 0 0 0 0 0 0 0 0 0 0 0 0 0 0 0 0 0 0 0 0 0 0 0 0 0 0 0 0 0 0 0
0 0 0 0 0 0 0 0 0 0 0 0 0 0 0 0 0 0 0 0 0 0 0 0 0 0 0 0 0 0 0 0 0 0 0 0 0 0
0 0 0 0 0 0 0 0 0 0 0 0 0 0 0 0 0 0 0 0 0 0 0 0 0 0 0 0 0 0 0 0 0 0 0 0 0 0
0 0 0 0 0 0 0 0 0 0 0 0 0 0 0 0 0 0 0 0 0 0 0 0 0 0 0 0 0 0 0 0 0 0 0 0 0 0
0 0 0 0 0 0 0 0 0 0 0 0 0 0 0 0 0 0 0 0 0 0 0 0 0 0 0 0 0 0 0 0 0 0 0 0 0 0
0 0 0 0 0 0 0 0 0 0 0 0 0 0 0 0 0 0 0 0 0 0 0 0 0 0 0 0 0 0 0 0 0 0 0 0 0 0
0 0 0 0 0 0 0 0 0 0 0 0 0 0 0 0 0 0 0 0 0 0 0 0 0 0 0 0 0 0 0 0 0 0 0 0 0 0
0 0 0 0 0 0 0 0 0 0 0 0 0 0 0 0 0 0 0 0 0 0 0 0 0 0 0 0 0 0 0 0 0 0 0 0 0 0
0 0 0 0 0 0 0 0 0 0 0 0 0 0 0 0 0 0 0 0 0 0 0 0 0 0 0 0 0 0 0 0 0 0 0 0 0 0
0 0 0 0 0 0 0 0 0 0 0 0 0 0 0 0 0 0 0 0 0 0 0 0 0 0 0 0 0 0 0 0 0 0 0 0 0 0
0 0 0 0 0 0 0 0 0 0 0 0 0 0 0 0 0 0 0 0 0 0 0 0 0 0 0 0 0 0 0 0 0 0 0 0 0 0
0 0 0 0 0 0 0 0 0 0 0 0 0 0 0 0 0 0 0 0 0 0 0 0 0 0 0 0 0 0 0 0 0 0 0 0 0 0
0 0 0 0 0 0 0 0 0 0 0 0 0 0 0 0 0 0 0 0 0 0 0 0 0 0 0 0 0 0 0 0 0 0 0 0 0 0
0 0 0 0 0 0 0 0 0 0 0 0 0 0 0 0 0 0 0 0 0 0 0 0 0 0 0 0 0 0 0 0 0 0 0 0 0 0
0 0 0 0 0 0 0 0 0 0 0 0 0 0 0 0 0 0 0 0 0 0 0 0 0 0 0 0 0 0 0 0 0 0 0 0 0 0
Wind_Speed
6 6 5 4 3 3 3 4 4 4 5 5 4 5 4 4 5 4 4 5 6 6 6 6 6 6 7 7 7 7 7 6 7 8 8 9 9 10
5 6 6 4 4 3 4 4 4 4 3 3 3 4 4 3 4 4 5 5 7 7 6 6 6 7 7 7 7 7 7 7 8 9 9 10 10 11
6 6 6 5 4 4 3 4 4 3 4 2 2 3 5 5 4 4 4 4 4 7 7 7 7 7 7 7 7 7 7 8 9 10 10 11 11 12
7 6 6 5 6 5 4 5 4 4 4 4 3 4 5 5 4 5 4 4 4 5 7 8 8 8 8 8 8 8 8 9 9 10 11 11 12 12
6 7 7 7 7 5 5 5 4 3 3 4 3 2 3 3 4 4 5 4 4 4 7 9 9 9 9 9 9 9 9 9 10 10 11 11 12 13
5 6 6 7 7 7 5 6 5 5 4 4 4 3 3 3 4 4 4 4 4 4 5 6 8 9 10 10 10 10 9 10 10 11 11 11 12 13
4 5 5 5 6 6 5 6 6 5 5 4 4 4 4 4 5 4 4 4 4 4 4 5 5 5 7 9 10 10 10 10 11 11 12 12 13 13
5 4 4 5 6 8 8 8 8 7 7 6 6 6 7 6 5 4 4 4 4 4 4 5 5 6 5 5 8 10 10 11 11 12 12 13 13 14
4 4 4 4 6 6 7 8 8 9 9 8 7 8 7 6 6 6 6 5 5 2 3 5 5 6 5 5 9 10 11 11 12 12 13 13 13 14
4 5 5 5 6 6 5 6 6 7 7 7 7 7 6 5 6 6 6 5 4 3 4 5 4 5 4 5 8 10 11 12 12 12 13 13 13 13
4 4 5 6 6 7 6 6 6 5 5 6 5 5 5 6 6 4 4 4 4 4 4 4 3 4 4 5 5 8 10 11 12 12 13 13 13 13
3 4 5 6 6 8 7 6 7 5 4 4 5 5 6 7 8 7 5 5 4 3 4 4 3 2 3 3 4 4 6 9 11 12 12 12 12 9
3 3 3 6 7 8 7 6 6 5 4 4 4 4 4 4 5 5 5 5 5 4 3 3 3 3 4 3 4 4 5 5 5 7 9 11 12 10
3 3 3 5 7 7 6 6 6 5 4 4 4 4 4 4 4 4 4 4 5 5 4 4 3 4 4 5 5 4 4 5 5 6 6 8 10 12
2 3 4 5 5 5 5 6 5 4 4 4 4 4 3 3 3 2 3 3 4 4 4 5 5 4 5 5 5 5 5 5 5 5 5 6 6 6
1 2 2 2 2 2 3 3 3 3 3 4 3 3 2 2 3 3 3 3 3 3 3 4 5 6 5 6 5 6 5 5 5 5 6 6 6 6
1 0 0 1 1 1 1 1 2 2 3 3 3 2 2 3 3 3 3 3 4 4 3 3 4 4 5 5 6 6 6 6 5 5 5 7 7 7
1 1 1 1 1 1 2 2 2 2 2 3 3 3 3 3 3 2 3 4 4 4 4 3 2 2 3 5 8 7 6 5 5 5 5 7 8 7
1 1 1 1 1 1 2 2 2 2 2 2 3 3 3 3 3 3 4 4 4 4 4 3 3 4 5 5 4 7 6 5 5 6 6 6 8 7
1 1 2 2 2 2 2 2 2 2 2 2 3 3 3 3 4 4 4 5 4 4 4 4 4 5 5 5 4 4 7 7 6 6 6 6 7 9
1 1 1 2 2 2 2 2 2 2 2 2 3 3 3 3 4 4 4 5 5 5 5 5 4 4 3 3 5 5 5 6 7 7 6 6 7 7
2 1 1 1 2 2 2 2 2 2 2 3 3 2 3 3 4 5 4 4 4 4 5 4 3 3 4 5 6 6 6 5 6 9 11 10 6 6
2 2 2 2 2 2 2 2 3 3 3 3 2 2 3 3 3 3 4 4 4 4 4 4 3 3 4 5 6 6 7 6 5 5 5 8 11 14
Wind_Direction
220 219 219 215 213 214 215 211 209 215 219 203 192 191 193 197 181 197 208 202 215 223 230 233 237 237 240 247 247 249 254 260 265 270 273 278 283 288
216 216 217 213 211 209 214 222 229 228 226 202 200 182 188 195 192 209 213 208 216 223 224 226 232 232 234 240 243 247 253 258 263 267 272 276 281 285
211 212 214 211 207 206 208 211 218 217 220 216 204 192 197 201 196 211 218 223 218 215 222 226 231 231 231 234 241 246 253 258 264 268 270 273 277 280
211 208 210 205 209 205 204 208 210 210 210 212 205 204 207 204 208 214 217 223 230 218 226 231 233 233 233 237 241 247 252 257 262 267 270 272 275 278
212 211 208 203 207 206 205 206 206 208 212 207 210 211 211 204 211 221 225 226 232 227 229 229 231 236 239 240 242 247 251 254 258 262 266 270 273 276
214 215 212 209 211 205 204 206 201 200 201 202 205 207 207 201 212 218 222 221 228 231 234 237 235 235 239 241 243 246 247 251 256 261 265 268 272 274
211 215 217 215 215 209 204 203 199 202 202 204 209 210 210 201 211 211 224 226 232 227 236 237 235 235 235 237 239 239 243 250 257 262 266 269 272 273
211 213 213 211 211 210 214 214 210 208 206 210 215 217 222 219 213 210 218 228 234 208 231 242 237 242 242 240 241 244 248 254 259 263 267 269 271 272
214 213 215 215 214 216 215 214 221 226 224 224 226 228 228 221 212 216 223 232 243 226 228 249 241 247 250 247 246 248 252 257 261 266 268 269 271 271
220 221 220 219 218 215 215 219 225 227 227 230 236 238 235 228 222 223 228 240 256 243 226 249 250 255 259 255 246 249 253 257 262 265 267 269 272 274
228 229 227 224 213 206 211 217 224 231 231 231 243 245 236 228 224 212 207 216 241 242 221 241 256 266 263 256 251 251 254 258 262 263 267 272 275 277
228 231 228 228 215 208 215 217 223 227 222 219 223 227 229 223 220 221 214 218 234 242 213 219 243 260 268 256 257 258 256 256 258 263 269 273 275 274
228 230 227 219 221 220 226 230 229 228 227 223 225 225 224 224 225 223 222 221 226 235 210 205 230 239 249 267 272 267 265 266 264 265 266 269 270 269
235 235 227 220 229 231 233 232 226 226 224 218 221 223 224 226 224 221 226 233 239 242 229 218 230 238 251 263 268 267 268 270 269 270 270 269 267 266
248 236 228 225 233 233 225 221 219 220 216 220 225 229 230 230 224 222 225 232 245 249 239 232 233 238 241 251 263 269 276 274 269 269 272 272 271 269
238 204 209 207 211 208 209 216 224 225 229 232 235 238 231 220 221 222 225 221 236 246 240 237 237 235 242 249 255 263 264 266 266 272 277 276 273 265
277 265 242 202 198 203 218 232 228 222 228 232 232 231 226 225 230 225 226 229 236 244 243 234 235 244 249 251 254 255 261 265 267 274 276 275 271 269
274 224 219 225 224 227 231 235 236 238 235 230 229 229 229 229 231 226 225 231 239 244 243 237 233 243 247 245 232 250 257 264 271 272 272 274 276 274
233 213 230 236 236 239 243 243 248 248 244 237 234 230 227 226 228 230 230 233 239 243 243 235 228 233 249 264 239 219 251 269 274 272 268 270 276 279
243 224 236 243 240 239 244 248 245 239 235 236 234 232 228 227 229 233 234 236 241 245 245 237 232 232 244 266 276 266 246 257 264 271 277 280 280 282
275 259 251 244 246 246 248 249 242 242 245 245 241 235 231 231 234 236 238 238 242 243 245 246 244 244 258 261 261 261 262 249 257 265 275 281 284 281
280 271 270 263 256 251 250 250 251 249 246 247 248 243 239 238 239 239 240 242 243 246 252 254 236 233 236 245 261 274 280 281 271 265 260 256 264 273
282 275 265 256 254 254 253 253 254 254 249 252 256 254 250 247 243 242 242 243 244 245 247 250 246 242 246 252 263 271 277 284 285 286 277 265 264 269